Location: Del Oro Observatory
(38.3044°N, 104.8119°W)
Time: 00:53:00
(UTC-06:00)

Cosmos 1602 Rocket - Visible Passes

Search period start: 29 July 2015 00:00
Search period end: 08 August 2015 00:00
Orbit: 604 x 635 km, 82.5° (Epoch: 28 July)

Date Brightness Start Highest point End Pass type
(mag) Time Alt. Az. Time Alt. Az. Time Alt. Az.
29 Jul 5.3 22:29:27 10° NNE 22:31:52 19° ENE 22:31:52 19° ENE visible
30 Jul 5.6 00:06:48 10° NNW 00:09:01 23° NW 00:09:01 23° NW visible
30 Jul 4.7 22:46:16 10° N 22:49:16 32° NE 22:49:16 32° NE visible
31 Jul 6.2 00:25:14 10° NW 00:26:26 14° WNW 00:26:26 14° WNW visible
31 Jul 4.3 23:03:28 10° N 23:06:42 49° N 23:06:42 49° N visible
01 Aug 5.7 21:45:33 10° NE 21:46:53 11° ENE 21:46:58 11° ENE visible
01 Aug 4.7 23:21:00 10° NNW 23:24:08 41° NW 23:24:08 41° NW visible
02 Aug 5.1 22:01:23 10° NNE 22:04:26 21° ENE 22:04:26 21° ENE visible
02 Aug 5.4 23:38:54 10° NNW 23:41:36 25° WNW 23:41:36 25° WNW visible
03 Aug 4.2 22:18:14 10° N 22:21:54 39° ENE 22:21:54 39° ENE visible
03 Aug 6.1 23:57:26 10° NW 23:59:04 14° WNW 23:59:04 14° WNW visible
04 Aug 3.6 22:35:30 10° N 22:39:23 70° NNE 22:39:23 70° NNE visible
05 Aug 5.6 21:17:15 10° NE 21:18:58 12° ENE 21:19:44 12° E visible
05 Aug 4.3 22:53:03 10° NNW 22:56:54 48° WNW 22:56:54 48° WNW visible
06 Aug 4.8 21:33:18 10° NNE 21:36:44 23° ENE 21:37:15 23° E visible
06 Aug 5.3 23:10:59 10° NNW 23:14:25 26° W 23:14:25 26° W visible
07 Aug 3.9 21:50:13 10° N 21:54:22 43° E 21:54:48 42° E visible
07 Aug 6.1 23:29:38 10° NW 23:31:54 14° W 23:31:59 14° W visible
